Marion, OH

12:35 PM EDT on August 20, 2017 (GMT -0400)
Marion Municipal

Weather History for KMNN - May, 2013

Change the Weather History Date:

Wednesday, May 1, 2013

  Actual Average (KDLZ) Record (KDLZ)
Temperature  
Mean Temperature 66 °F -  
Max Temperature 79 °F 67 °F 86 °F (1942)
Min Temperature 55 °F 43 °F 27 °F (1963)
Cooling Degree Days 2    
Growing Degree Days 16 (Base 50)    
Moisture  
Dew Point 54 °F    
Average Humidity 65    
Maximum Humidity 86    
Minimum Humidity 43    
Precipitation  
Precipitation 0.00 in - - ()
Sea Level Pressure  
Sea Level Pressure 30.19 in    
Wind  
Wind Speed 8 mph (SE)    
Max Wind Speed 13 mph    
Max Gust Speed 17 mph    
Averages and records for this station are not official NWS values.
T = Trace of Precipitation, MM = Missing Value Source: NWS Daily Summary

Daily Weather History Graph

Daily Weather History Graph

Search for Another Location

Airport or City:

Trip Planner

Search our weather history database for the weather conditions in past years. The results will help you decide how hot, cold, wet, or windy it might be!

Date:

Astronomy

May. 01, 2013 Rise Set
Actual Time 6:30 AM EDT 8:28 PM EDT
Civil Twilight 6:01 AM EDT 8:58 PM EDT
Nautical Twilight 5:24 AM EDT 9:34 PM EDT
Astronomical Twilight 4:45 AM EDT 10:13 PM EDT
Moon 1:37 AM EDT (5/1) 12:07 PM EDT (5/1)
Length of Visible Light 14h 57m
Length of Day
13h 57m
Waning Gibbous, 59% of the Moon is Illuminated
May 1
Waning Gibbous
May 2
Last Quarter
May 9
New
May 18
First Quarter
May 25
Full

Hourly Weather History & Observations

Time (EDT) Temp. Dew Point Humidity Pressure Visibility Wind Dir Wind Speed Gust Speed Precip Events Conditions
1:53 AM 55.0 °F 51.1 °F 86% 30.11 in - SE 4.6 mph - N/A   Clear
2:53 AM 57.0 °F 50.0 °F 77% 30.11 in - SE 8.1 mph - N/A   Clear
3:53 AM 55.9 °F 50.0 °F 80% 30.12 in - SE 6.9 mph - N/A   Clear
4:53 AM 55.0 °F 50.0 °F 83% 30.14 in - SE 6.9 mph - N/A   Clear
5:53 AM 55.9 °F 50.0 °F 80% 30.15 in - SE 9.2 mph - N/A   Clear
7:53 AM 57.9 °F 52.0 °F 81% 30.20 in - SE 10.4 mph - N/A   Clear
8:53 AM 61.0 °F 53.1 °F 75% 30.22 in - SSE 11.5 mph - N/A   Clear
9:53 AM 64.9 °F 55.0 °F 70% 30.24 in - SSE 12.7 mph - N/A   Clear
10:53 AM 68.0 °F 55.9 °F 65% 30.24 in - SSE 11.5 mph - N/A   Clear
11:53 AM 71.1 °F 57.9 °F 63% 30.23 in - SSE 8.1 mph - N/A   Clear
12:53 PM 75.0 °F 59.0 °F 57% 30.22 in - SSE 10.4 mph - N/A   Clear
1:53 PM 77.0 °F 55.9 °F 48% 30.21 in - SE 10.4 mph - N/A   Clear
2:53 PM 78.1 °F 57.0 °F 48% 30.21 in - SE 9.2 mph 17.3 mph N/A   Clear
3:53 PM 78.1 °F 55.0 °F 45% 30.20 in - SSE 11.5 mph 16.1 mph N/A   Clear
5:53 PM 78.1 °F 54.0 °F 43% 30.20 in - ESE 12.7 mph - N/A   Clear
6:53 PM 77.0 °F 54.0 °F 45% 30.20 in - SE 9.2 mph - N/A   Clear
7:53 PM 73.0 °F 55.9 °F 55% 30.20 in - ESE 5.8 mph - N/A   Clear
8:53 PM 71.1 °F 54.0 °F 55% 30.21 in - SE 4.6 mph - N/A   Clear
9:53 PM 64.9 °F 55.0 °F 70% 30.22 in - ESE 5.8 mph - N/A   Clear
10:53 PM 64.0 °F 53.1 °F 67% 30.23 in - ESE 5.8 mph - N/A   Clear
11:53 PM 63.0 °F 52.0 °F 67% 30.22 in - ESE 8.1 mph - N/A   Clear